STARLINK-3731 (52109 NORAD) Tracking and Keplerian Element Data

This shows tracking and keplerian element data for the satellite.

Feedback or suggestion? Click here.




ElementValue
Catalog52109
NameSTARLINK-3731
Epoch Orbit313
Epoch Day90.09481
Epoch Year2022
RAAN84.2647
Inclination53.2197
Eccentricity0.0010293
Argument of Perigee161.7998
Mean Anonmoly314.8155
Mean Motion16.11270788
Decay Rate0.04607147
L11 52109U 22029X 22090.09481000 .04607147 42667-1 56348-2 0 9990
L22 52109 53.2197 84.2647 0010293 161.7998 314.8155 16.11270788 3138



Live tracking and technical data element details for STARLINK-3731 (NORAD 52109). STARLINK-3731 can be tracked NOW for your location showing map with azimuth and elevation plus other details from your city location.







IsCatalogInMostPopularTable: catalog: 52109, numindb: 26
Update: records affected: 1



GetName: 52109 STARLINK-3731

Hit Count: updated at: Sun, 28 May 2023 19:14:02 GMT